Hourly Weather Kyzylsengir

Today, 23 October, Friday

Time Temperature Precipitation Wind Pressure Humidity
00:00 +9°C° 0 mm 2 mps 711 mmHg 50%
01:00 +9°C° 0 mm 2 mps 711 mmHg 49%
02:00 +9°C° 0 mm 2 mps 711 mmHg 47%
03:00 +10°C° 0 mm 1 mps 712 mmHg 48%
04:00 +10°C° 0 mm 1 mps 712 mmHg 48%
05:00 +9°C° 0 mm 0 mps 712 mmHg 46%
06:00 +10°C° 0 mm 1 mps 712 mmHg 45%
07:00 +10°C° 0 mm 1 mps 713 mmHg 45%
08:00 +10°C° 0 mm 1 mps 713 mmHg 45%
09:00 +9°C° 0 mm 2 mps 714 mmHg 47%
10:00 +9°C° 0 mm 3 mps 714 mmHg 50%
11:00 +10°C° 0 mm 4 mps 714 mmHg 52%
12:00 +10°C° 0 mm 4 mps 714 mmHg 48%
13:00 +11°C° 0 mm 4 mps 714 mmHg 44%
14:00 +11°C° 0 mm 4 mps 715 mmHg 40%
15:00 +11°C° 0 mm 3 mps 715 mmHg 40%
16:00 +11°C° 0 mm 3 mps 715 mmHg 40%
17:00 +10°C° 0 mm 2 mps 715 mmHg 39%
18:00 +12°C° 0 mm 2 mps 717 mmHg 35%
19:00 +8°C° 0 mm 2 mps 717 mmHg 42%
20:00 +6°C° 0 mm 1 mps 716 mmHg 49%
21:00 +5°C° 0 mm 2 mps 716 mmHg 50%
22:00 +5°C° 0 mm 2 mps 716 mmHg 51%
23:00 +5°C° 0 mm 2 mps 716 mmHg 52%

Tomorrow, 24 October, Saturday

Time Temperature Precipitation Wind Pressure Humidity
00:00 +5°C° 0 mm 2 mps 716 mmHg 51%
01:00 +5°C° 0 mm 2 mps 716 mmHg 50%
02:00 +5°C° 0 mm 2 mps 716 mmHg 50%
03:00 +5°C° 0 mm 2 mps 716 mmHg 49%
04:00 +5°C° 0 mm 2 mps 716 mmHg 49%
05:00 +5°C° 0 mm 2 mps 716 mmHg 49%
06:00 +6°C° 0 mm 2 mps 716 mmHg 46%
07:00 +7°C° 0 mm 2 mps 716 mmHg 43%
08:00 +7°C° 0 mm 2 mps 716 mmHg 41%
09:00 +9°C° 0 mm 2 mps 716 mmHg 37%
10:00 +12°C° 0 mm 2 mps 716 mmHg 34%
11:00 +13°C° 0 mm 2 mps 716 mmHg 30%
12:00 +14°C° 0 mm 2 mps 716 mmHg 30%
13:00 +13°C° 0 mm 3 mps 716 mmHg 29%
14:00 +14°C° 0 mm 3 mps 715 mmHg 29%
15:00 +13°C° 0 mm 3 mps 715 mmHg 31%
16:00 +12°C° 0 mm 3 mps 715 mmHg 33%
17:00 +11°C° 0 mm 3 mps 715 mmHg 36%
18:00 +10°C° 0 mm 2 mps 715 mmHg 39%
19:00 +8°C° 0 mm 2 mps 715 mmHg 43%
20:00 +7°C° 0 mm 2 mps 715 mmHg 46%
21:00 +7°C° 0 mm 2 mps 716 mmHg 46%
22:00 +7°C° 0 mm 2 mps 716 mmHg 47%
23:00 +6°C° 0 mm 2 mps 716 mmHg 47%

Day after tomorrow, 25 October, Sunday

Time Temperature Precipitation Wind Pressure Humidity
00:00 +7°C° 0 mm 1 mps 716 mmHg 47%
01:00 +7°C° 0 mm 1 mps 716 mmHg 46%
02:00 +7°C° 0 mm 1 mps 716 mmHg 46%
03:00 +7°C° 0 mm 1 mps 716 mmHg 45%
04:00 +7°C° 0 mm 1 mps 716 mmHg 45%
05:00 +7°C° 0 mm 1 mps 716 mmHg 44%
06:00 +8°C° 0 mm 1 mps 716 mmHg 41%
07:00 +9°C° 0 mm 1 mps 716 mmHg 39%
08:00 +10°C° 0 mm 1 mps 717 mmHg 36%
09:00 +12°C° 0 mm 1 mps 717 mmHg 32%
10:00 +14°C° 0 mm 1 mps 717 mmHg 28%
11:00 +16°C° 0 mm 1 mps 717 mmHg 25%
12:00 +17°C° 0 mm 2 mps 717 mmHg 24%
13:00 +18°C° 0 mm 2 mps 717 mmHg 22%
14:00 +18°C° 0 mm 2 mps 716 mmHg 21%
15:00 +17°C° 0 mm 2 mps 716 mmHg 23%
16:00 +16°C° 0 mm 2 mps 716 mmHg 25%
17:00 +15°C° 0 mm 1 mps 716 mmHg 28%
18:00 +14°C° 0 mm 2 mps 715 mmHg 30%
19:00 +12°C° 0 mm 2 mps 715 mmHg 33%
20:00 +10°C° 0 mm 2 mps 715 mmHg 36%
21:00 +10°C° 0 mm 2 mps 715 mmHg 36%
22:00 +10°C° 0 mm 2 mps 715 mmHg 35%
23:00 +10°C° 0 mm 2 mps 714 mmHg 35%

, 26 October, Monday

Time Temperature Precipitation Wind Pressure Humidity
00:00 +10°C° 0 mm 2 mps 714 mmHg 35%
01:00 +10°C° 0 mm 2 mps 714 mmHg 34%
02:00 +10°C° 0 mm 2 mps 713 mmHg 33%
03:00 +9°C° 0 mm 2 mps 713 mmHg 33%
04:00 +9°C° 0 mm 2 mps 713 mmHg 32%
05:00 +9°C° 0 mm 2 mps 713 mmHg 32%
06:00 +10°C° 0 mm 2 mps 713 mmHg 29%
07:00 +12°C° 0 mm 2 mps 713 mmHg 27%
08:00 +13°C° 0 mm 2 mps 713 mmHg 25%
09:00 +15°C° 0 mm 2 mps 713 mmHg 21%
10:00 +19°C° 0 mm 1 mps 713 mmHg 18%
11:00 +22°C° 0 mm 1 mps 713 mmHg 14%
12:00 +22°C° 0 mm 1 mps 712 mmHg 13%
13:00 +23°C° 0 mm 2 mps 712 mmHg 12%
14:00 +24°C° 0 mm 2 mps 712 mmHg 12%
15:00 +21°C° 0 mm 2 mps 711 mmHg 13%
16:00 +20°C° 0 mm 2 mps 711 mmHg 15%
17:00 +19°C° 0 mm 1 mps 711 mmHg 17%
18:00 +18°C° 0 mm 1 mps 710 mmHg 19%
19:00 +15°C° 0 mm 1 mps 710 mmHg 21%
20:00 +14°C° 0 mm 1 mps 710 mmHg 23%
21:00 +14°C° 0 mm 1 mps 709 mmHg 23%
22:00 +13°C° 0 mm 2 mps 709 mmHg 23%
23:00 +13°C° 0 mm 2 mps 709 mmHg 23%

26 October, Monday

Time Temperature Precipitation Wind Pressure Humidity
00:00 +10°C° 0 mm 2 mps 714 mmHg 35%
01:00 +10°C° 0 mm 2 mps 714 mmHg 34%
02:00 +10°C° 0 mm 2 mps 713 mmHg 33%
03:00 +9°C° 0 mm 2 mps 713 mmHg 33%
04:00 +9°C° 0 mm 2 mps 713 mmHg 32%
05:00 +9°C° 0 mm 2 mps 713 mmHg 32%
06:00 +10°C° 0 mm 2 mps 713 mmHg 29%
07:00 +12°C° 0 mm 2 mps 713 mmHg 27%
08:00 +13°C° 0 mm 2 mps 713 mmHg 25%
09:00 +15°C° 0 mm 2 mps 713 mmHg 21%
10:00 +19°C° 0 mm 1 mps 713 mmHg 18%
11:00 +22°C° 0 mm 1 mps 713 mmHg 14%
12:00 +22°C° 0 mm 1 mps 712 mmHg 13%
13:00 +23°C° 0 mm 2 mps 712 mmHg 12%
14:00 +24°C° 0 mm 2 mps 712 mmHg 12%
15:00 +21°C° 0 mm 2 mps 711 mmHg 13%
16:00 +20°C° 0 mm 2 mps 711 mmHg 15%
17:00 +19°C° 0 mm 1 mps 711 mmHg 17%
18:00 +18°C° 0 mm 1 mps 710 mmHg 19%
19:00 +15°C° 0 mm 1 mps 710 mmHg 21%
20:00 +14°C° 0 mm 1 mps 710 mmHg 23%
21:00 +14°C° 0 mm 1 mps 709 mmHg 23%
22:00 +13°C° 0 mm 2 mps 709 mmHg 23%
23:00 +13°C° 0 mm 2 mps 709 mmHg 23%

27 October, Tuesday

Time Temperature Precipitation Wind Pressure Humidity
00:00 +13°C° 0 mm 2 mps 709 mmHg 22%
01:00 +14°C° 0 mm 2 mps 709 mmHg 21%
02:00 +14°C° 0 mm 2 mps 708 mmHg 21%
03:00 +14°C° 0 mm 2 mps 708 mmHg 20%
04:00 +14°C° 0 mm 2 mps 708 mmHg 20%
05:00 +14°C° 0 mm 2 mps 708 mmHg 19%
06:00 +14°C° 0 mm 1 mps 708 mmHg 18%
07:00 +15°C° 0 mm 1 mps 708 mmHg 17%
08:00 +15°C° 0 mm 1 mps 708 mmHg 16%
09:00 +17°C° 0 mm 2 mps 708 mmHg 15%
10:00 +19°C° 0 mm 3 mps 708 mmHg 14%
11:00 +20°C° 0 mm 4 mps 708 mmHg 13%
12:00 +21°C° 0 mm 4 mps 708 mmHg 14%
13:00 +21°C° 0 mm 5 mps 708 mmHg 14%
14:00 +21°C° 0 mm 5 mps 708 mmHg 14%
15:00 +20°C° 0 mm 4 mps 708 mmHg 16%
16:00 +19°C° 0 mm 3 mps 708 mmHg 18%
17:00 +18°C° 0 mm 2 mps 708 mmHg 20%
18:00 +17°C° 0 mm 2 mps 708 mmHg 21%
19:00 +16°C° 0 mm 2 mps 709 mmHg 23%
20:00 +15°C° 0 mm 2 mps 709 mmHg 25%
21:00 +14°C° 0 mm 2 mps 709 mmHg 33%
22:00 +11°C° 0 mm 3 mps 710 mmHg 42%
23:00 +10°C° 0 mm 4 mps 710 mmHg 50%

28 October, Wednesday

Time Temperature Precipitation Wind Pressure Humidity
00:00 +10°C° 0 mm 4 mps 710 mmHg 50%
01:00 +9°C° 0 mm 3 mps 711 mmHg 51%
02:00 +9°C° 0 mm 3 mps 711 mmHg 51%
03:00 +9°C° 0.1 mm 3 mps 712 mmHg 53%
04:00 +8°C° 0.1 mm 2 mps 712 mmHg 55%
05:00 +8°C° 0.1 mm 2 mps 713 mmHg 57%
06:00 +9°C° 0.1 mm 1 mps 713 mmHg 58%
07:00 +9°C° 0.1 mm 1 mps 714 mmHg 59%
08:00 +9°C° 0.1 mm 1 mps 715 mmHg 60%
09:00 +9°C° 0 mm 2 mps 715 mmHg 53%
10:00 +10°C° 0 mm 3 mps 715 mmHg 47%
11:00 +10°C° 0 mm 3 mps 715 mmHg 40%
12:00 +11°C° 0 mm 3 mps 716 mmHg 38%
13:00 +11°C° 0 mm 3 mps 716 mmHg 35%
14:00 +12°C° 0 mm 3 mps 716 mmHg 32%
15:00 +11°C° 0 mm 3 mps 717 mmHg 34%
16:00 +10°C° 0 mm 3 mps 717 mmHg 36%
17:00 +9°C° 0 mm 3 mps 717 mmHg 37%
18:00 +8°C° 0 mm 3 mps 718 mmHg 42%
19:00 +6°C° 0 mm 2 mps 718 mmHg 47%
20:00 +5°C° 0 mm 2 mps 718 mmHg 52%
21:00 +5°C° 0 mm 2 mps 718 mmHg 53%
22:00 +5°C° 0 mm 2 mps 718 mmHg 55%
23:00 +4°C° 0 mm 2 mps 718 mmHg 56%
Show more

We Need Your Consent

Meteoprog and our Service Providers may store and access personal data such as cookies, device identifiers or other similar technologies on your device and process such data to personalise content and ads, as well as provide social media features and to analyse the traffic.

  • Store and/or access information on your device

    Cookies, device identifiers or other information can be stored or accessed on your device for the purposes indicated above.

  • Personalised ads and content, ad and content measurement, audience insights, and products development

    Ads and content can be personalised based on a profile. More data can be added to better personalise ads and content. Ad and content performance can be measured. Insights about the audience who saw the ads and content can be derived. Such data can be used to develop or improve user’s experience, systems and software.

By clicking ‘I Agree’ you will allow the use of indicated cookies, device identifiers, web beacons or other similar technologies. Your settings can be changed in the browser on your device.

For certain purposes, legitimate interests may be relied on, rather than consent. You can read more about this in our Privacy and Cookie Policy.